sat.trackr.live / text

‹ back to catalog

STARLINK-5439

NORAD 54783 · 2022-175AB

PAYLOAD ACTIVE UNKNOWN

§ Identity

Operator
Country
US
Launch date
2022-12-17
Launch site
AFETR
Launch vehicle
Mass (kg)
RCS (m²)

Purposes: comms

External: N2YO · Heavens-Above · Gunter

§ Orbital elements

Epoch: 2026-05-25T03:45:34.553088Z

Period
95.44 min
Inclination
53.2130°
Eccentricity
0.0001549
Mean motion
15.08838824 rev/d
Perigee alt
538.7 km
Apogee alt
540.8 km
Semi-major
6,917.9 km
B*
-1.5867e-5
RAAN
45.8305°
Arg perigee
63.4606°
Mean anomaly
296.6544°
Rev number
19,167

§ Raw data

STARLINK-54391 54783U 22175AB  26145.15664992 -.00000541  00000+0 -15867-4 0  99962 54783  53.2130  45.8305 0001549  63.4606 296.6544 15.08838824191679

JSON: /api/v1/satellites/54783 · /tle

For live sub-satellite position, see the globe view (requires WebGL).

§ Visibility from observer

Set your observer location to see the next 7 days of passes ≥ 10°. The values pass through the URL so the page stays shareable.

No JS? Fill the form by hand. The geolocation button needs JavaScript.